CAPE
0 0 0 0 0 0 0 0 0 0 0 0 0 0 0 0 0 0 0 0 0 0 0 0 0 0 0 0 0 0 0 0 0 0 0 0 0 0 0 0 1 0 0
0 0 0 0 0 0 0 0 0 0 0 0 0 0 0 0 0 0 0 0 0 0 0 0 0 0 0 0 0 0 0 0 0 0 0 0 0 0 0 0 0 0 0
0 0 0 0 0 0 0 0 0 0 0 0 0 0 0 0 0 0 0 0 0 0 0 0 0 0 0 0 0 0 0 0 0 0 0 0 0 0 0 0 0 0 0
0 0 0 0 0 0 0 0 0 0 0 0 0 0 0 0 0 0 0 0 0 0 0 0 0 0 0 0 0 0 0 0 0 0 0 0 0 0 0 0 0 0 0
0 0 0 0 0 0 0 0 0 0 0 0 0 0 0 0 0 0 0 0 0 0 0 0 0 0 0 0 0 0 0 0 0 0 0 0 0 0 0 0 0 0 0
0 0 0 0 0 0 0 0 0 0 0 0 0 0 0 0 0 0 0 0 0 0 0 0 0 0 0 0 0 0 0 0 0 0 0 0 0 0 0 0 0 0 0
0 0 0 0 0 0 0 0 0 0 0 0 0 0 0 0 0 0 0 0 0 0 0 0 0 0 0 0 0 0 0 0 0 0 0 0 0 0 0 0 0 0 0
0 0 0 0 0 0 0 0 0 0 0 0 0 0 0 0 0 0 0 0 0 0 0 0 0 0 0 0 0 0 0 0 0 0 0 0 0 0 0 0 2 0 1
0 0 0 0 0 0 0 0 0 0 0 0 0 0 0 0 0 0 0 0 0 0 0 0 0 0 0 0 0 0 0 0 0 0 0 0 1 7 14 15 12 13 1
0 0 0 0 0 0 0 0 0 0 0 0 0 0 0 0 0 0 0 0 0 0 0 0 0 0 0 0 0 0 0 0 0 0 0 0 0 0 0 8 11 12 17
0 0 0 0 0 0 0 0 0 0 0 0 0 0 0 0 0 0 0 0 0 0 0 0 0 0 0 0 0 0 0 0 0 0 0 0 0 0 0 0 1 4 9
0 0 0 0 0 0 0 0 0 0 0 0 0 0 0 0 0 0 0 0 0 0 0 0 0 0 0 0 0 0 0 0 0 0 0 0 0 0 0 0 0 0 9
0 0 0 0 0 0 0 0 0 0 0 0 0 0 0 0 0 0 0 0 0 0 0 0 0 0 0 0 0 0 0 0 0 0 0 0 0 0 0 0 0 3 11
0 0 0 0 0 0 0 0 0 0 0 0 0 0 0 0 0 0 0 0 0 0 0 0 0 0 0 0 0 0 0 0 0 0 0 0 0 1 1 2 2 3 13
0 0 0 0 0 0 0 0 0 0 0 0 0 0 0 0 0 0 0 0 0 0 0 0 0 0 0 0 0 0 0 0 0 0 0 0 0 3 13 11 5 8 8
0 0 0 0 0 0 0 0 0 0 0 0 0 0 0 0 0 0 0 0 0 0 0 0 0 0 0 0 0 0 0 0 0 0 0 0 1 0 2 8 16 25 25
0 0 0 0 0 0 0 0 0 0 0 0 0 0 0 0 0 0 0 0 0 0 0 0 0 0 0 0 0 0 0 0 0 0 0 0 1 4 2 3 8 13 19
0 0 0 0 0 0 0 0 0 0 0 0 0 0 0 0 0 0 0 0 0 0 0 0 0 0 0 0 0 0 0 0 0 0 0 0 0 2 4 4 4 7 10
0 0 0 0 0 0 0 0 0 0 0 0 0 0 0 0 0 0 0 0 0 0 0 0 0 0 0 0 0 0 0 0 0 2 5 4 2 4 10 7 5 2 3
0 0 0 0 0 0 0 0 0 0 0 0 0 0 0 0 0 0 0 0 0 0 0 0 0 0 0 0 0 2 1 1 1 2 2 0 3 10 20 16 10 9 3
0 0 0 0 0 0 0 0 0 0 0 0 0 0 0 0 0 0 0 0 0 0 0 0 0 0 0 0 3 7 8 7 7 6 4 2 5 9 16 7 4 1 3
0 0 0 0 0 0 0 0 0 0 0 0 0 0 0 0 0 0 0 0 0 0 0 0 0 0 3 3 0 4 1 2 0 2 2 7 8 33 20 17 10 19 15
0 0 0 0 0 0 0 0 0 0 0 0 0 0 0 0 0 0 0 0 0 0 1 0 2 3 0 0 1 3 4 10 8 6 1 7 9 9 5 6 7 14 4
0 0 0 0 0 0 0 0 0 0 0 0 0 0 0 0 0 0 0 0 0 1 1 2 0 0 0 0 2 1 6 8 5 3 3 13 14 8 0 2 2 10 6
0 0 0 0 0 0 0 0 0 0 0 0 0 0 0 0 0 0 0 0 1 0 0 0 0 1 2 1 6 14 15 12 9 13 0 0 0 1 1 4 5 0 0
0 0 0 0 0 0 0 0 0 0 0 0 0 0 0 0 0 0 1 1 0 1 1 1 1 0 1 8 14 18 6 3 3 2 2 1 0 0 0 0 3 10 4
CIN
-0 -0 -0 -0 -0 -0 -0 -0 -0 -0 -0 -0 -0 -0 -0 -0 -0 -0 -0 -0 -0 -0 -0 -0 -0 -0 -0 -0 -0 -0 -0 -0 -0 -0 -0 -0 -0 -0 -0 -0 -0 -0 -0
-0 -0 -0 -0 -0 -0 -0 -0 -0 -0 -0 -0 -0 -0 -0 -0 -0 -0 -0 -0 -0 -0 -0 -0 -0 -0 -0 -0 -0 -0 -0 -0 -0 -0 -0 -0 -0 -0 -0 -0 -0 -0 -0
-0 -0 -0 -0 -0 -0 -0 -0 -0 -0 -0 -0 -0 -0 -0 -0 -0 -0 -0 -0 -0 -0 -0 -0 -0 -0 -0 -0 -0 -0 -0 -0 -0 -0 -0 -0 -0 -0 -0 -0 -0 -0 -0
-0 -0 -0 -0 -0 -0 -0 -0 -0 -0 -0 -0 -0 -0 -0 -0 -0 -0 -0 -0 -0 -0 -0 -0 -0 -0 -0 -0 -0 -0 -0 -0 -0 -0 -0 -0 -0 -0 -0 -0 -0 -0 -0
-0 -0 -0 -0 -0 -0 -0 -0 -0 -0 -0 -0 -0 -0 -0 -0 -0 -0 -0 -0 -0 -0 -0 -0 -0 -0 -0 -0 -0 -0 -0 -0 -0 -0 -0 -0 -0 -0 -0 -0 -0 -0 -0
-0 -0 -0 -0 -0 -0 -0 -0 -0 -0 -0 -0 -0 -0 -0 -0 -0 -0 -0 -0 -0 -0 -0 -0 -0 -0 -0 -0 -0 -0 -0 -0 -0 -0 -0 -0 -0 -0 -0 -0 -0 -0 -0
-0 -0 -0 -0 -0 -0 -0 -0 -0 -0 -0 -0 -0 -0 -0 -0 -0 -0 -0 -0 -0 -0 -0 -0 -0 -0 -0 -0 -0 -0 -0 -0 -0 -0 -0 -0 -0 -0 -0 -0 -0 -0 -0
-0 -0 -0 -0 -0 -0 -0 -0 -0 -0 -0 -0 -0 -0 -0 -0 -0 -0 -0 -0 -0 -0 -0 -0 -0 -0 -0 -0 -0 -0 -0 -0 -0 -0 -0 -0 -0 -0 -0 -0 -0 -0 -0
-0 -0 -0 -0 -0 -0 -0 -0 -0 -0 -0 -0 -0 -0 -0 -0 -0 -0 -0 -0 -0 -0 -0 -0 -0 -0 -0 -0 -0 -0 -0 -0 -0 -0 -0 -0 -0 -0 -0 -0 -0 -0 -0
-0 -0 -0 -0 -0 -0 -0 -0 -0 -0 -0 -0 -0 -0 -0 -0 -0 -0 -0 -0 -0 -0 -0 -0 -0 -0 -0 -0 -0 -0 -0 -0 -0 -0 -0 -0 -0 -0 -0 -0 -0 -0 -0
-0 -0 -0 -0 -0 -0 -0 -0 -0 -0 -0 -0 -0 -0 -0 -0 -0 -0 -0 -0 -0 -0 -0 -0 -0 -0 -0 -0 -0 -0 -0 -0 -0 -0 -0 -0 -0 -0 -0 -0 -0 -0 -0
-0 -0 -0 -0 -0 -0 -0 -0 -0 -0 -0 -0 -0 -0 -0 -0 -0 -0 -0 -0 -0 -0 -0 -0 -0 -0 -0 -0 -0 -0 -0 -0 -0 -0 -0 -0 -0 -0 -0 -0 -0 -0 -0
-0 -0 -0 -0 -0 -0 -0 -0 -0 -0 -0 -0 -0 -0 -0 -0 -0 -0 -0 -0 -0 -0 -0 -0 -0 -0 -0 -0 -0 -0 -0 -0 -0 -0 -0 -0 -0 -0 -0 -0 -0 -0 -0
-0 -0 -0 -0 -0 -0 -0 -0 -0 -0 -0 -0 -0 -0 -0 -0 -0 -0 -0 -0 -0 -0 -0 -0 -0 -0 -0 -0 -0 -0 -0 -0 -0 -0 -0 -0 -0 -0 -0 -0 -0 -0 -0
-0 -0 -0 -0 -0 -0 -0 -0 -0 -0 -0 -0 -0 -0 -0 -0 -0 -0 -0 -0 -0 -0 -0 -0 -0 -0 -0 -0 -0 -0 -0 -0 -0 -0 -0 -0 -0 -0 -0 -0 -1 -1 -0
-0 -0 -0 -0 -0 -0 -0 -0 -0 -0 -0 -0 -0 -0 -0 -0 -0 -0 -0 -0 -0 -0 -0 -0 -0 -0 -0 -0 -0 -0 -0 -0 -0 -0 -0 -0 -0 -0 -1 -1 -0 -1 -0
-0 -0 -0 -0 -0 -0 -0 -0 -0 -0 -0 -0 -0 -0 -0 -0 -0 -0 -0 -0 -0 -0 -0 -0 -0 -0 -0 -0 -0 -0 -0 -0 -0 -0 -0 -0 -0 -0 -0 -0 -2 -1 -1
-0 -0 -0 -0 -0 -0 -0 -0 -0 -0 -0 -0 -0 -0 -0 -0 -0 -0 -0 -0 -0 -0 -0 -0 -0 -0 -0 -0 -0 -0 -0 -0 -0 -0 -0 -0 -0 -0 -1 -2 -3 -1 -0
-0 -0 -0 -0 -0 -0 -0 -0 -0 -0 -0 -0 -0 -0 -0 -0 -0 -0 -0 -0 -0 -0 -0 -0 -0 -0 -0 -0 -0 -0 -0 -0 -0 -0 -0 -0 -1 -0 -1 -2 -2 -2 -0
-0 -0 -0 -0 -0 -0 -0 -0 -0 -0 -0 -0 -0 -0 -0 -0 -0 -0 -0 -0 -0 -0 -0 -0 -0 -0 -0 -0 -0 -1 -0 -0 -0 -0 -0 -1 -1 -1 -1 -1 -1 -0 -1
-0 -0 -0 -0 -0 -0 -0 -0 -0 -0 -0 -0 -0 -0 -0 -0 -0 -0 -0 -0 -0 -0 -0 -0 -0 -0 -0 -0 -1 -1 -2 -2 -0 -1 -1 -2 -1 -1 -1 -1 -1 -1 -1
-0 -0 -0 -0 -0 -0 -0 -0 -0 -0 -0 -0 -0 -0 -0 -0 -0 -0 -0 -0 -0 -0 -0 -0 -0 -1 -0 -1 -0 -1 -3 -2 -1 -0 -0 -0 -0 -0 -0 -0 -0 -0 -1
-0 -0 -0 -0 -0 -0 -0 -0 -0 -0 -0 -0 -0 -0 -0 -0 -0 -0 -0 -0 -0 -0 -0 -0 -0 -0 -0 -0 -1 -1 -1 -1 -1 -0 -0 -1 -0 -0 -0 -0 -0 -1 -2
-0 -0 -0 -0 -0 -0 -0 -0 -0 -0 -0 -0 -0 -0 -0 -0 -0 -0 -0 -0 -0 -1 -1 -0 -0 -1 -0 -0 -0 -0 -0 -0 -1 -3 -6 -0 -0 -0 -0 -0 -3 -1 -1
-0 -0 -0 -0 -0 -0 -0 -0 -0 -0 -0 -0 -0 -0 -0 -0 -0 -0 -0 -2 -1 -1 -0 -1 -1 -0 -1 -2 -1 -1 -0 -1 -1 -1 -0 -0 -0 -0 -0 -1 -1 -0 -0
-0 -0 -0 -0 -0 -0 -0 -0 -0 -0 -0 -0 -0 -0 -0 -0 -1 -2 -2 -0 -0 -1 -1 -1 -1 -1 -1 -1 -1 -1 -1 -2 -2 -3 -1 -2 -1 -0 -0 -0 -0 -0 -1
Wind_Speed
14 11 8 5 4 3 3 3 4 4 5 6 6 8 10 11 13 16 18 20 21 23 24 25 26 28 29 31 32 33 35 35 36 37 40 35 34 31 33 38 29 34 33
13 11 9 7 5 4 3 3 3 3 4 5 7 8 9 12 13 15 18 19 21 23 24 26 27 29 31 32 34 35 36 36 38 39 41 38 37 31 43 33 37 33 33
13 12 10 8 6 5 5 4 4 4 4 5 7 8 9 10 13 14 17 19 21 22 24 26 28 30 32 34 35 35 37 39 39 38 38 40 39 47 35 41 38 39 39
14 12 10 8 7 6 5 5 4 4 5 4 5 6 9 11 13 15 17 19 21 22 25 27 30 32 33 35 36 37 39 40 43 41 38 38 42 46 49 41 39 39 38
15 13 11 9 7 6 6 4 4 5 5 5 6 8 10 12 14 16 17 19 20 23 26 29 32 33 34 36 38 40 41 41 42 43 44 43 43 43 48 54 48 43 41
15 13 11 8 7 6 5 5 5 6 5 6 7 9 11 13 15 17 18 21 23 25 27 32 33 35 37 39 40 41 42 42 43 44 44 45 46 47 47 51 51 51 47
15 13 11 10 8 6 6 5 4 5 6 7 9 10 12 14 15 17 20 23 26 28 31 34 36 37 39 40 41 41 42 42 43 44 44 44 44 44 46 49 53 54 49
15 13 12 10 8 7 5 4 4 5 6 8 10 11 12 14 16 19 22 24 28 31 33 35 36 38 39 40 41 42 42 43 44 45 44 45 44 43 44 46 51 57 55
13 12 11 9 7 5 4 4 4 5 7 8 10 12 14 16 18 21 24 27 30 33 35 36 38 39 40 41 42 42 44 44 44 45 45 45 44 43 43 43 44 51 61
11 10 9 7 5 4 4 4 4 6 7 9 11 13 15 17 20 23 27 30 33 35 37 38 39 41 41 42 43 43 43 45 45 45 45 45 44 44 43 43 44 45 51
10 8 7 5 4 3 4 4 5 7 8 10 12 14 17 20 23 27 30 33 35 36 38 39 40 41 42 42 44 45 46 46 46 46 46 46 45 45 44 43 43 45 45
8 6 5 4 4 4 4 5 6 8 10 12 14 17 19 23 26 29 32 34 36 37 39 40 41 42 43 43 45 47 47 48 48 47 46 46 44 44 43 42 44 44 44
7 5 5 5 4 4 5 6 7 9 11 14 17 19 23 26 29 32 34 35 37 38 39 40 42 43 44 45 45 46 47 47 47 46 45 45 45 46 45 44 45 44 43
7 7 5 4 4 5 5 7 9 11 14 16 20 23 26 29 32 34 35 36 38 39 40 41 42 43 44 45 46 45 45 45 45 45 44 44 45 45 44 43 43 42 41
8 7 6 6 4 5 7 8 11 13 16 20 23 26 28 31 33 35 36 38 39 40 41 43 43 43 43 43 44 44 45 45 46 44 44 44 43 43 41 40 40 38 39
7 6 6 6 5 6 8 11 13 16 19 22 25 28 30 33 34 36 38 39 41 41 42 43 43 43 42 42 43 43 43 44 44 46 44 42 41 39 37 36 36 35 38
7 6 6 6 6 8 10 13 16 18 21 24 27 30 32 34 36 38 39 41 42 42 43 43 43 43 42 41 41 41 42 43 43 42 42 41 37 36 36 35 33 34 35
6 6 6 6 8 10 13 15 18 21 24 27 29 31 33 35 37 39 41 42 42 42 43 43 43 43 41 41 41 42 42 41 40 39 38 35 34 32 33 33 34 35 35
5 5 5 7 10 13 15 18 21 23 26 28 30 32 35 37 39 40 41 41 42 42 43 42 43 42 41 41 42 41 40 39 39 37 34 33 33 31 32 33 33 34 34
4 6 7 10 13 15 18 21 24 26 29 30 32 34 36 38 39 40 41 40 41 43 42 42 40 40 41 40 40 39 38 39 39 38 34 33 32 31 33 33 32 35 33
5 7 10 14 16 18 20 24 26 28 29 31 33 35 36 37 38 39 39 41 41 41 41 40 39 39 38 39 39 40 40 38 38 37 35 32 30 30 32 30 30 31 29
8 11 13 16 17 19 22 26 28 28 30 32 34 36 37 37 38 39 39 39 40 40 39 40 39 37 37 37 41 41 39 38 39 38 36 34 34 33 32 31 30 29 26
10 13 15 17 19 21 23 28 29 30 32 34 36 37 37 37 37 38 38 39 38 38 38 39 39 39 37 38 38 38 38 38 36 34 34 34 31 26 26 26 28 23 21
12 14 16 19 22 24 26 28 30 31 33 35 37 37 37 36 36 36 36 35 36 37 37 38 39 38 38 37 36 36 36 35 33 30 29 25 25 22 22 21 21 18 16
13 15 18 21 24 26 28 29 31 32 35 36 36 36 35 36 36 35 34 34 34 34 37 36 35 38 38 37 38 37 38 38 31 28 28 27 27 26 23 21 20 15 13
15 18 21 24 26 28 29 31 32 33 35 36 35 35 35 35 35 34 33 31 34 34 33 33 34 33 35 37 36 38 40 44 32 31 27 26 22 22 24 20 20 17 13
Wind_Direction
251 254 258 268 286 321 349 12 24 29 22 17 19 16 6 7 4 3 1 0 360 358 355 353 350 346 344 340 338 336 334 334 334 329 327 327 329 328 331 327 332 329 330
242 248 250 257 270 293 322 345 1 9 8 8 6 2 6 359 360 360 359 358 357 354 352 350 346 343 339 337 336 335 333 332 331 328 324 324 325 326 323 326 325 327 328
236 239 242 248 264 281 303 327 343 356 356 358 358 2 1 359 354 355 355 354 354 353 350 347 343 340 338 334 333 333 331 327 328 328 326 322 319 317 322 319 321 320 321
238 236 237 245 258 279 308 325 346 352 355 1 355 351 343 343 347 349 351 351 350 348 346 343 341 338 337 333 332 331 327 325 321 323 323 320 317 315 313 316 317 319 318
234 233 234 243 258 280 300 329 345 346 348 347 347 342 343 346 346 346 346 347 347 345 342 339 337 335 334 330 328 327 325 324 321 320 318 317 315 314 311 309 313 314 315
233 235 238 244 256 281 300 317 326 333 349 350 349 341 340 341 342 342 341 340 339 339 338 336 334 333 329 328 327 326 324 322 320 318 316 315 314 313 311 309 310 309 312
229 229 231 238 253 268 289 306 318 328 338 341 341 342 342 343 342 340 337 335 333 333 332 331 330 329 328 327 327 325 324 323 320 319 317 315 313 313 311 309 307 307 309
228 228 231 241 251 265 282 298 311 322 331 335 338 341 340 339 338 336 334 333 332 331 330 330 329 328 327 327 326 325 323 322 320 318 317 315 313 312 310 309 308 305 305
224 225 229 240 250 259 272 292 308 319 326 331 334 336 337 336 334 333 333 331 329 328 328 327 327 327 326 325 324 324 322 321 320 319 317 315 314 312 310 308 307 305 303
221 222 228 238 247 263 280 300 312 318 326 331 333 333 334 333 332 331 329 328 327 327 327 326 326 325 325 324 323 322 322 320 319 318 317 315 314 312 311 309 307 305 303
222 217 226 233 247 270 288 304 316 322 326 329 330 331 331 330 329 328 327 327 327 327 326 325 325 324 324 323 322 321 319 318 318 318 316 315 314 312 311 310 308 305 304
220 215 224 234 256 277 294 308 319 323 326 328 329 328 328 327 327 326 326 326 326 326 325 325 324 323 322 322 321 320 319 318 317 316 316 315 315 312 311 310 307 305 304
226 227 236 248 264 285 302 313 320 324 326 327 326 326 325 325 325 325 326 326 326 325 325 324 323 322 322 321 320 320 319 318 317 316 315 315 314 312 310 309 307 306 305
236 244 250 261 280 297 309 317 322 325 326 326 325 324 324 325 325 325 326 326 326 325 325 324 323 322 322 321 321 320 320 320 318 317 316 315 313 311 310 309 308 308 306
246 250 261 276 290 305 316 322 324 324 325 324 323 323 324 325 325 325 325 326 326 325 324 323 323 323 323 323 322 322 320 320 318 318 317 315 313 312 311 311 310 309 307
246 258 272 284 296 310 317 321 323 324 325 324 323 324 324 325 325 325 325 325 325 325 324 324 324 323 323 323 322 322 321 320 320 319 319 318 316 315 313 312 312 309 308
252 262 276 291 309 317 321 321 323 325 324 324 324 324 324 324 325 326 326 325 325 325 325 325 325 324 324 324 324 323 322 321 320 320 320 319 319 318 316 316 313 311 309
258 270 288 307 319 323 323 325 324 324 324 324 325 325 325 325 326 326 325 325 326 326 326 325 325 325 326 326 325 324 323 322 322 323 322 320 320 320 319 318 317 316 313
271 291 310 318 321 322 324 324 324 324 324 324 325 326 326 325 325 325 326 326 326 326 326 327 326 326 327 327 326 326 325 325 325 325 324 322 320 319 318 319 318 318 317
293 304 319 322 322 325 327 325 324 324 323 326 326 326 326 325 325 326 326 327 327 326 327 327 328 328 328 329 329 329 328 326 326 326 324 322 320 319 319 319 320 318 320
306 322 322 319 324 328 328 324 324 324 327 327 326 326 326 326 326 327 327 327 327 328 328 329 331 331 332 331 331 331 330 328 326 325 325 323 322 323 321 320 320 320 320
316 320 320 322 328 330 329 325 325 327 327 327 326 326 326 327 327 327 328 329 329 330 331 332 332 333 334 335 332 333 333 332 330 329 328 327 326 322 320 319 317 316 316
319 324 325 325 328 331 330 325 326 328 327 326 326 326 326 327 328 329 330 331 332 332 333 333 334 334 336 336 337 337 337 336 335 334 331 328 327 321 322 323 326 319 320
324 327 329 329 327 329 329 327 327 328 327 326 326 327 328 329 330 331 332 333 334 334 334 335 335 335 336 339 341 342 341 340 339 337 336 332 329 321 323 323 325 321 316
333 334 331 329 328 329 328 329 329 328 327 327 327 329 330 331 332 333 334 334 335 336 334 336 336 335 338 341 341 343 343 344 348 347 348 347 346 345 346 342 338 330 325
334 332 330 328 328 328 328 328 329 329 328 328 330 331 331 333 333 334 335 338 336 337 337 338 337 340 340 341 344 343 343 334 355 357 358 358 358 354 352 351 350 346 336